Weather History for Sheldon, IA

Change the Weather History Date:

Tuesday, December 25, 2012

  Actual Average Record
Temperature  
Mean Temperature 2 °F -  
Max Temperature 8 °F 23 °F 47 °F (1963)
Min Temperature -4 °F 4 °F -20 °F (1990)
Degree Days  
Heating Degree Days 63    
Moisture  
Dew Point -3 °F    
Average Humidity 78    
Maximum Humidity 85    
Minimum Humidity 71    
Precipitation  
Precipitation 0.00 in - - ()
Sea Level Pressure  
Sea Level Pressure 30.39 in    
Wind  
Wind Speed 9 mph (NNW)    
Max Wind Speed 14 mph    
Max Gust Speed -    
Visibility 10 miles    
Events      
Averages and records for this station are not official NWS values.
T = Trace of Precipitation, MM = Missing Value Source: NWS Daily Summary

Daily Weather History Graph

Daily Weather History Graph

Search for Another Location

Airport:

Trip Planner

Search our weather history database for the weather conditions in past years. The results will help you decide how hot, cold, wet, or windy it might be!

Date:

Astronomy

Dec. 25, 2012 Rise Set
Actual Time 7:54 AM CST 4:53 PM CST
Civil Twilight 7:21 AM CST 5:26 PM CST
Nautical Twilight 6:45 AM CST 6:02 PM CST
Astronomical Twilight 6:10 AM CST 6:36 PM CST
Moon 3:03 PM CST (12/25) 5:26 AM CST (12/25)
Length of Visible Light 10h 04m
Length of Day
8h 59m
Waxing Gibbous, 94% of the Moon is Illuminated
Dec 25
Waxing Gibbous
Dec 28
Full
Jan 4
Last Quarter
Jan 11
New
Jan 18
First Quarter

Hourly Weather History & Observations

Time (CST) Temp. Windchill Dew Point Humidity Pressure Visibility Wind Dir Wind Speed Gust Speed Precip Events Conditions
12:15 AM -2.2 °F -16.8 °F -9.4 °F 71% 30.30 in 10.0 mi NNW 8.1 mph - N/A   Overcast
12:35 AM -2.2 °F -18.0 °F -9.4 °F 71% 30.30 in 10.0 mi NNW 9.2 mph - N/A   Overcast
12:55 AM -4.0 °F -20.2 °F -9.4 °F 78% 30.30 in 10.0 mi North 9.2 mph - N/A   Mostly Cloudy
1:15 AM -2.2 °F -19.9 °F -9.4 °F 71% 30.30 in 10.0 mi North 11.5 mph - N/A   Mostly Cloudy
1:35 AM -2.2 °F -16.8 °F -9.4 °F 71% 30.31 in 10.0 mi NNW 8.1 mph - N/A   Clear
1:55 AM -2.2 °F -18.9 °F -9.4 °F 71% 30.31 in 10.0 mi NNW 10.4 mph - N/A   Clear
2:15 AM -2.2 °F -18.0 °F -9.4 °F 71% 30.32 in 10.0 mi NNW 9.2 mph - N/A   Clear
2:35 AM -2.2 °F -18.0 °F -9.4 °F 71% 30.32 in 10.0 mi North 9.2 mph - N/A   Clear
2:55 AM -2.2 °F -18.0 °F -9.4 °F 71% 30.33 in 10.0 mi North 9.2 mph - N/A   Clear
3:15 AM -2.2 °F -16.8 °F -9.4 °F 71% 30.33 in 10.0 mi NNW 8.1 mph - N/A   Clear
3:35 AM -2.2 °F -14.2 °F -9.4 °F 71% 30.34 in 10.0 mi NNW 5.8 mph - N/A   Clear
3:55 AM -4.0 °F -16.3 °F -9.4 °F 78% 30.33 in 10.0 mi NNW 5.8 mph - N/A   Clear
4:15 AM -4.0 °F -16.3 °F -9.4 °F 78% 30.34 in 10.0 mi NW 5.8 mph - N/A   Mostly Cloudy
4:35 AM -2.2 °F -16.8 °F -9.4 °F 71% 30.34 in 10.0 mi NNW 8.1 mph - N/A   Overcast
4:55 AM -4.0 °F -19.0 °F -9.4 °F 78% 30.33 in 10.0 mi NNW 8.1 mph - N/A   Scattered Clouds
5:15 AM -4.0 °F -20.2 °F -9.4 °F 78% 30.34 in 10.0 mi North 9.2 mph - N/A   Mostly Cloudy
5:35 AM -4.0 °F -17.8 °F -9.4 °F 78% 30.34 in 10.0 mi North 6.9 mph - N/A   Overcast
5:55 AM -4.0 °F -19.0 °F -9.4 °F 78% 30.35 in 10.0 mi NNW 8.1 mph - N/A   Mostly Cloudy
6:15 AM -2.2 °F -15.6 °F -7.6 °F 78% 30.35 in 10.0 mi North 6.9 mph - N/A   Partly Cloudy
6:35 AM -2.2 °F -16.8 °F -7.6 °F 78% 30.36 in 10.0 mi NNW 8.1 mph - N/A   Clear
6:55 AM -2.2 °F -21.5 °F -5.8 °F 85% 30.37 in 10.0 mi North 13.8 mph - N/A   Clear
7:15 AM -0.4 °F -16.7 °F -5.8 °F 78% 30.38 in 10.0 mi North 10.4 mph - N/A   Clear
7:35 AM -0.4 °F -16.7 °F -7.6 °F 72% 30.39 in 10.0 mi North 10.4 mph - N/A   Partly Cloudy
7:55 AM -2.2 °F -18.0 °F -7.6 °F 78% 30.40 in 10.0 mi North 9.2 mph - N/A   Clear
8:15 AM -2.2 °F -16.8 °F -7.6 °F 78% 30.41 in 10.0 mi North 8.1 mph - N/A   Clear
8:35 AM -2.2 °F -16.8 °F -7.6 °F 78% 30.42 in 10.0 mi North 8.1 mph - N/A   Clear
8:55 AM -2.2 °F -15.6 °F -7.6 °F 78% 30.43 in 10.0 mi North 6.9 mph - N/A   Clear
9:15 AM -0.4 °F -12.0 °F -7.6 °F 72% 30.44 in 10.0 mi North 5.8 mph - N/A   Clear
9:35 AM -0.4 °F -16.7 °F -5.8 °F 78% 30.45 in 10.0 mi North 10.4 mph - N/A   Clear
9:55 AM -0.4 °F -17.6 °F -5.8 °F 78% 30.45 in 10.0 mi North 11.5 mph - N/A   Partly Cloudy
10:15 AM 1.4 °F -15.3 °F -4.0 °F 78% 30.45 in 10.0 mi North 11.5 mph - N/A   Partly Cloudy
10:35 AM 1.4 °F -15.3 °F -4.0 °F 78% 30.46 in 10.0 mi North 11.5 mph - N/A   Partly Cloudy
10:55 AM 3.2 °F -11.3 °F -2.2 °F 78% 30.46 in 10.0 mi North 9.2 mph - N/A   Partly Cloudy
11:15 AM 5.0 °F -10.0 °F -2.2 °F 72% 30.46 in 10.0 mi North 10.4 mph - N/A   Clear
11:35 AM 5.0 °F -11.6 °F -0.4 °F 78% 30.46 in 10.0 mi North 12.7 mph - N/A   Clear
11:55 AM 5.0 °F -10.8 °F -0.4 °F 78% 30.45 in 10.0 mi North 11.5 mph - N/A   Clear
12:15 PM 6.8 °F -8.6 °F 1.4 °F 79% 30.44 in 10.0 mi North 11.5 mph - N/A   Clear
12:35 PM 6.8 °F -8.6 °F 1.4 °F 79% 30.43 in 10.0 mi North 11.5 mph - N/A   Partly Cloudy
12:55 PM 6.8 °F -8.6 °F -0.4 °F 72% 30.42 in 10.0 mi North 11.5 mph - N/A   Clear
1:15 PM 6.8 °F -9.3 °F 1.4 °F 79% 30.41 in 10.0 mi North 12.7 mph - N/A   Clear
1:35 PM 6.8 °F -9.3 °F 1.4 °F 79% 30.39 in 10.0 mi North 12.7 mph - N/A   Clear
1:55 PM 8.6 °F -6.3 °F 1.4 °F 73% 30.38 in 10.0 mi North 11.5 mph - N/A   Clear
2:15 PM 6.8 °F -8.6 °F 1.4 °F 79% 30.38 in 10.0 mi North 11.5 mph - N/A   Clear
2:35 PM 6.8 °F -8.6 °F 1.4 °F 79% 30.38 in 10.0 mi NNW 11.5 mph - N/A   Clear
2:55 PM 6.8 °F -9.3 °F 1.4 °F 79% 30.38 in 10.0 mi NNW 12.7 mph - N/A   Clear
3:15 PM 8.6 °F -5.5 °F 1.4 °F 73% 30.39 in 10.0 mi NNW 10.4 mph - N/A   Clear
3:35 PM 6.8 °F -7.8 °F 1.4 °F 79% 30.40 in 10.0 mi NNW 10.4 mph - N/A   Clear
3:55 PM 6.8 °F -7.8 °F 1.4 °F 79% 30.40 in 10.0 mi NNW 10.4 mph - N/A   Clear
4:15 PM 6.8 °F -5.9 °F 1.4 °F 79% 30.42 in 10.0 mi NNW 8.1 mph - N/A   Clear
4:35 PM 6.8 °F -4.8 °F 1.4 °F 79% 30.43 in 10.0 mi NNW 6.9 mph - N/A   Clear
4:55 PM 6.8 °F -2.0 °F 1.4 °F 79% 30.44 in 10.0 mi NW 4.6 mph - N/A   Clear
5:15 PM 6.8 °F -2.0 °F 1.4 °F 79% 30.44 in 10.0 mi NW 4.6 mph - N/A   Clear
5:35 PM 6.8 °F -2.0 °F 1.4 °F 79% 30.44 in 10.0 mi NW 4.6 mph - N/A   Scattered Clouds
5:55 PM 6.8 °F -2.0 °F 1.4 °F 79% 30.45 in 10.0 mi NW 4.6 mph - N/A   Overcast
6:15 PM 5.0 °F -4.1 °F 1.4 °F 85% 30.45 in 10.0 mi NW 4.6 mph - N/A   Overcast
6:35 PM 5.0 °F -5.6 °F 1.4 °F 85% 30.44 in 10.0 mi NW 5.8 mph - N/A   Overcast
6:55 PM 5.0 °F -6.9 °F 1.4 °F 85% 30.43 in 10.0 mi NW 6.9 mph - N/A   Overcast
7:15 PM 5.0 °F -9.1 °F -0.4 °F 78% 30.42 in 10.0 mi NNW 9.2 mph - N/A   Overcast
7:35 PM 5.0 °F -8.1 °F -0.4 °F 78% 30.41 in 10.0 mi NNW 8.1 mph - N/A   Overcast
7:55 PM 5.0 °F -9.1 °F -0.4 °F 78% 30.40 in 10.0 mi North 9.2 mph - N/A   Overcast
8:15 PM 5.0 °F -8.1 °F 1.4 °F 85% 30.39 in 10.0 mi NNW 8.1 mph - N/A   Overcast
8:35 PM 5.0 °F -8.1 °F 1.4 °F 85% 30.38 in 10.0 mi NNW 8.1 mph - N/A   Overcast
8:55 PM 5.0 °F -8.1 °F 1.4 °F 85% 30.37 in 10.0 mi NNW 8.1 mph - N/A   Mostly Cloudy
9:15 PM 5.0 °F -8.1 °F 1.4 °F 85% 30.36 in 10.0 mi North 8.1 mph - N/A   Mostly Cloudy
10:15 PM 5.0 °F -10.0 °F -0.4 °F 78% 30.35 in 10.0 mi North 10.4 mph - N/A   Partly Cloudy
10:35 PM 5.0 °F -8.1 °F -0.4 °F 78% 30.35 in 10.0 mi North 8.1 mph - N/A   Mostly Cloudy
10:55 PM 5.0 °F -6.9 °F -0.4 °F 78% 30.35 in 10.0 mi North 6.9 mph - N/A   Overcast
11:15 PM 3.2 °F -9.1 °F -0.4 °F 85% 30.35 in 10.0 mi NNW 6.9 mph - N/A   Overcast
11:35 PM 1.4 °F -6.2 °F -2.2 °F 85% 30.34 in 10.0 mi NNW 3.5 mph - N/A   Overcast
11:55 PM 1.4 °F -8.3 °F -2.2 °F 85% 30.34 in 10.0 mi NNW 4.6 mph - N/A   Overcast